| time (UTC) | temp C | wind direction | speed KPH | gust KPH | rain 1hr cm | rain 24hr cm | rain mn cm | humidity % | barometer mb |
| 20260506201531 | 7 | 83 | 0.0 | 0.0 | 0.05 | 2.57 | 1.63 | 100 | 1005.2 |
| 20260506200021 | 7 | 255 | 0.0 | 0.0 | 0.03 | 2.51 | 1.57 | 99 | 1005.1 |
| 20260506194525 | 7 | 133 | 0.0 | 0.0 | 0.03 | 2.51 | 1.57 | 100 | 1005.1 |
| 20260506193018 | 7 | 257 | 0.0 | 0.0 | 0.08 | 2.51 | 1.57 | 100 | 1005.2 |
| 20260506191517 | 7 | 223 | 0.0 | 0.0 | 0.13 | 2.51 | 1.57 | 100 | 1005.2 |
| 20260506190016 | 7 | 141 | 0.0 | 0.0 | 0.15 | 2.49 | 1.55 | 100 | 1005.5 |
| 20260506184513 | 6 | 122 | 0.0 | 1.6 | 0.25 | 2.49 | 1.55 | 100 | 1005.6 |
| 20260506183021 | 6 | 93 | 0.0 | 0.0 | 0.28 | 2.44 | 1.50 | 100 | 1005.5 |
| 20260506181511 | 7 | 248 | 0.0 | 0.0 | 0.28 | 2.39 | 1.42 | 100 | 1005.6 |
| 20260506180011 | 7 | 271 | 0.0 | 0.0 | 0.30 | 2.34 | 1.40 | 100 | 1005.7 |
| 20260506174508 | 8 | 259 | 0.0 | 0.0 | 0.36 | 2.24 | 1.30 | 100 | 1006.0 |
| 20260506173002 | 8 | 136 | 0.0 | 0.0 | 0.36 | 2.16 | 1.22 | 100 | 1006.1 |
| 20260506171502 | 9 | 148 | 0.0 | 0.0 | 0.38 | 2.11 | 1.17 | 100 | 1005.7 |
| 20260506170001 | 8 | 117 | 0.0 | 0.0 | 0.36 | 2.03 | 1.09 | 100 | 1005.8 |
| 20260506164601 | 8 | 107 | 0.0 | 0.0 | 0.25 | 1.88 | 0.94 | 100 | 1005.4 |
| 20260506163110 | 8 | 314 | 0.0 | 0.0 | 0.25 | 1.80 | 0.86 | 100 | 1005.6 |
| 20260506161555 | 8 | 240 | 0.0 | 0.0 | 0.23 | 1.73 | 0.79 | 100 | 1005.7 |
| 20260506160054 | 8 | 323 | 0.0 | 0.0 | 0.23 | 1.68 | 0.71 | 100 | 1005.8 |
| 20260506154522 | 8 | 150 | 0.0 | 0.0 | 0.20 | 1.60 | 0.66 | 100 | 1006.2 |
| 20260506153020 | 8 | 274 | 0.0 | 0.0 | 0.20 | 1.55 | 0.61 | 100 | 1006.4 |
| 20260506151518 | 8 | 129 | 0.0 | 0.0 | 0.18 | 1.50 | 0.56 | 100 | 1006.7 |
| 20260506150017 | 8 | 119 | 0.0 | 0.0 | 0.18 | 1.42 | 0.51 | 100 | 1006.8 |
| 20260506144516 | 8 | 120 | 0.0 | 0.0 | 0.18 | 1.40 | 0.46 | 100 | 1007.0 |
| 20260506143026 | 8 | 281 | 0.0 | 0.0 | 0.18 | 1.35 | 0.41 | 100 | 1006.9 |
| 20260506141512 | 8 | 299 | 0.0 | 0.0 | 0.20 | 1.32 | 0.38 | 100 | 1007.0 |
| 20260506140012 | 8 | 133 | 0.0 | 0.0 | 0.23 | 1.27 | 0.33 | 100 | 1007.5 |
| 20260506134511 | 8 | 131 | 0.0 | 0.0 | 0.23 | 1.22 | 0.28 | 100 | 1007.3 |
| 20260506133007 | 8 | 150 | 0.0 | 0.0 | 0.20 | 1.17 | 0.23 | 100 | 1007.1 |
| 20260506131503 | 9 | 291 | 0.0 | 0.0 | 0.18 | 1.12 | 0.18 | 100 | 1007.2 |
| 20260506130005 | 9 | 302 | 0.0 | 0.0 | 0.10 | 1.04 | 0.10 | 100 | 1007.3 |
| 20260506124600 | 9 | 101 | 0.0 | 0.0 | 0.05 | 0.99 | 0.05 | 100 | 1007.6 |
| 20260506123100 | 9 | 101 | 0.0 | 0.0 | 0.03 | 0.97 | 0.03 | 100 | 1007.7 |
| 20260506121558 | 9 | 103 | 0.0 | 0.0 | 0.00 | 0.94 | 0.00 | 100 | 1007.7 |
| 20260506120057 | 10 | 127 | 0.0 | 0.0 | 0.00 | 0.94 | 0.00 | 100 | 1007.4 |
| 20260506114556 | 10 | 127 | 0.0 | 0.0 | 0.00 | 0.94 | 0.00 | 100 | 1007.4 |
| 20260506113054 | 9 | 80 | 0.0 | 0.0 | 0.00 | 0.94 | 0.00 | 100 | 1007.5 |
| 20260506111551 | 9 | 223 | 0.0 | 0.0 | 0.00 | 0.94 | 0.00 | 100 | 1007.5 |
| 20260506110050 | 10 | 136 | 0.0 | 0.0 | 0.00 | 0.94 | 0.00 | 100 | 1007.7 |
| 20260506104549 | 10 | 305 | 0.0 | 0.0 | 0.00 | 0.94 | 0.00 | 100 | 1008.0 |
| 20260506103053 | 10 | 305 | 0.0 | 0.0 | 0.00 | 0.94 | 0.00 | 100 | 1007.7 |
| 20260506101546 | 10 | 105 | 0.0 | 0.0 | 0.00 | 0.94 | 0.00 | 100 | 1008.1 |
| 20260506100044 | 10 | 100 | 0.0 | 0.0 | 0.00 | 0.94 | 0.00 | 100 | 1007.8 |
| 20260506094542 | 10 | 302 | 0.0 | 0.0 | 0.00 | 0.94 | 0.00 | 100 | 1008.0 |
| 20260506093042 | 10 | 314 | 0.0 | 0.0 | 0.05 | 0.94 | 0.94 | 100 | 1008.0 |
| 20260506091539 | 10 | 314 | 0.0 | 0.0 | 0.05 | 0.94 | 0.94 | 100 | 1008.3 |
| 20260506090047 | 10 | 313 | 0.0 | 0.0 | 0.05 | 0.94 | 0.94 | 100 | 1008.3 |
| 20260506084553 | 10 | 313 | 0.0 | 0.0 | 0.05 | 0.94 | 0.94 | 100 | 1008.5 |
| 20260506083037 | 10 | 272 | 0.0 | 0.0 | 0.00 | 0.89 | 0.89 | 100 | 1008.2 |
| 20260506081508 | 10 | 96 | 0.0 | 0.0 | 0.10 | 0.89 | 0.89 | 100 | 1008.3 |
| 20260506073004 | 10 | 280 | 0.0 | 0.0 | 0.10 | 0.89 | 0.89 | 100 | 1008.0 |
| 20260506071503 | 10 | 75 | 0.0 | 0.0 | 0.00 | 0.79 | 0.79 | 100 | 1008.5 |
| 20260506061603 | 11 | 319 | 0.0 | 0.0 | 0.13 | 0.79 | 0.79 | 100 | 1008.6 |
| 20260506050108 | 11 | 15 | 0.0 | 0.0 | 0.33 | 0.61 | 0.61 | 99 | 1008.2 |
| 20260506044555 | 11 | 112 | 0.0 | 0.0 | 0.41 | 0.61 | 0.61 | 97 | 1008.5 |
| 20260506043100 | 11 | 102 | 0.0 | 4.8 | 0.38 | 0.56 | 0.56 | 97 | 1008.5 |
| 20260506041550 | 12 | 87 | 0.0 | 0.0 | 0.18 | 0.36 | 0.36 | 97 | 1008.2 |
| 20260506040047 | 12 | 100 | 0.0 | 0.0 | 0.08 | 0.25 | 0.25 | 97 | 1007.8 |
| 20260506034548 | 12 | 94 | 0.0 | 11.3 | 0.03 | 0.20 | 0.20 | 100 | 1007.5 |
| 20260506033043 | 11 | 93 | 0.0 | 0.0 | 0.00 | 0.18 | 0.18 | 100 | 1006.7 |
| 20260506031547 | 11 | 91 | 0.0 | 0.0 | 0.00 | 0.18 | 0.18 | 100 | 1006.7 |
| 20260506030041 | 12 | 91 | 0.0 | 0.0 | 0.00 | 0.18 | 0.18 | 100 | 1006.6 |
| 20260506024544 | 12 | 91 | 0.0 | 0.0 | 0.00 | 0.18 | 0.18 | 100 | 1006.3 |
| 20260506023035 | 12 | 92 | 0.0 | 0.0 | 0.00 | 0.18 | 0.18 | 100 | 1006.7 |
| 20260506021533 | 12 | 109 | 0.0 | 0.0 | 0.00 | 0.18 | 0.18 | 100 | 1006.6 |
| 20260506020032 | 12 | 109 | 0.0 | 0.0 | 0.00 | 0.18 | 0.18 | 100 | 1006.3 |
| 20260506014532 | 12 | 273 | 0.0 | 0.0 | 0.00 | 0.18 | 0.18 | 100 | 1006.2 |
| 20260506013029 | 12 | 273 | 0.0 | 0.0 | 0.00 | 0.18 | 0.18 | 100 | 1006.2 |
| 20260506011534 | 13 | 270 | 0.0 | 0.0 | 0.00 | 0.18 | 0.18 | 100 | 1006.1 |
| 20260506010028 | 13 | 271 | 0.0 | 0.0 | 0.00 | 0.18 | 0.18 | 99 | 1006.2 |
| 20260506004527 | 13 | 271 | 0.0 | 0.0 | 0.00 | 0.18 | 0.18 | 99 | 1005.8 |
| 20260506003025 | 13 | 93 | 0.0 | 0.0 | 0.00 | 0.18 | 0.18 | 98 | 1005.7 |
| 20260506001524 | 13 | 120 | 0.0 | 0.0 | 0.00 | 0.18 | 0.18 | 98 | 1005.7 |
| 20260506000024 | 14 | 67 | 0.0 | 0.0 | 0.00 | 0.18 | 0.18 | 98 | 1005.7 |
| 20260505234524 | 14 | 271 | 0.0 | 0.0 | 0.00 | 0.18 | 0.18 | 97 | 1005.4 |
| 20260505233021 | 15 | 271 | 0.0 | 0.0 | 0.00 | 0.18 | 0.18 | 96 | 1005.2 |
| 20260505231523 | 15 | 271 | 0.0 | 0.0 | 0.00 | 0.18 | 0.18 | 95 | 1005.1 |
| 20260505230020 | 15 | 271 | 0.0 | 0.0 | 0.00 | 0.18 | 0.18 | 93 | 1005.1 |
| 20260505224520 | 16 | 258 | 0.0 | 0.0 | 0.00 | 0.18 | 0.18 | 92 | 1004.9 |
| 20260505223023 | 16 | 68 | 0.0 | 0.0 | 0.00 | 0.18 | 0.18 | 90 | 1005.3 |
| 20260505221517 | 16 | 19 | 0.0 | 0.0 | 0.00 | 0.18 | 0.18 | 91 | 1005.2 |
| 20260505220016 | 16 | 84 | 0.0 | 0.0 | 0.03 | 0.18 | 0.18 | 88 | 1004.9 |
| 20260505214523 | 16 | 116 | 0.0 | 0.0 | 0.03 | 0.18 | 0.18 | 88 | 1005.0 |
| 20260505213015 | 16 | 135 | 0.0 | 1.6 | 0.05 | 0.18 | 0.18 | 87 | 1004.9 |
| 20260505211615 | 16 | 108 | 0.0 | 3.2 | 0.15 | 0.18 | 0.18 | 87 | 1004.8 |
| 20260505210011 | 16 | 86 | 0.0 | 0.0 | 0.15 | 0.15 | 0.15 | 89 | 1004.5 |
| 20260505204511 | 15 | 116 | 0.0 | 0.0 | 0.15 | 0.15 | 0.15 | 89 | 1003.9 |
| 20260505203006 | 16 | 101 | 0.0 | 6.4 | 0.13 | 0.13 | 0.13 | 85 | 1004.2 |